McCook, NE

3:06 PM CST on February 24, 2017 (GMT -0600)
McCook Municipal

Weather History for KMCK - February, 2013

Change the Weather History Date:

Wednesday, February 20, 2013

  Actual Average Record
Temperature  
Mean Temperature 19 °F 32 °F  
Max Temperature 23 °F 46 °F 81 °F (1930)
Min Temperature 14 °F 18 °F -8 °F (1918)
Degree Days  
Heating Degree Days 47    
Moisture  
Dew Point 14 °F    
Average Humidity 81    
Maximum Humidity 93    
Minimum Humidity 46    
Precipitation  
Precipitation 0.17 in 0.02 in 0.37 in (1953)
Month to date precipitation 0.46 0.40  
Year to date precipitation 0.51 0.91  
Sea Level Pressure  
Sea Level Pressure 30.03 in    
Wind  
Wind Speed 16 mph (East)    
Max Wind Speed 20 mph    
Max Gust Speed 26 mph    
Visibility 3 miles    
Events Fog , Snow    
T = Trace of Precipitation, MM = Missing Value Source: NWS Daily Summary

Daily Weather History Graph

Daily Weather History Graph

Search for Another Location

Airport or City:

Trip Planner

Search our weather history database for the weather conditions in past years. The results will help you decide how hot, cold, wet, or windy it might be!

Date:

Astronomy

Feb. 20, 2013 Rise Set
Actual Time 7:28 AM CST 6:24 PM CST
Civil Twilight 7:00 AM CST 6:51 PM CST
Nautical Twilight 6:29 AM CST 7:23 PM CST
Astronomical Twilight 5:57 AM CST 7:54 PM CST
Moon 1:46 PM CST (2/20) 3:50 AM CST (2/20)
Length of Visible Light 11h 50m
Length of Day
10h 55m
Waxing Gibbous, 76% of the Moon is Illuminated
Feb 20
Waxing Gibbous
Feb 25
Full
Mar 4
Last Quarter
Mar 11
New
Mar 19
First Quarter

Hourly Weather History & Observations

Time (CST) Temp. Windchill Dew Point Humidity Pressure Visibility Wind Dir Wind Speed Gust Speed Precip Events Conditions
12:53 AM 19.9 °F 6.2 °F 3.0 °F 48% 30.20 in 10.0 mi East 15.0 mph - N/A   Clear
1:53 AM 19.9 °F 4.3 °F 1.9 °F 46% 30.19 in 10.0 mi East 19.6 mph - N/A   Clear
2:53 AM 18.0 °F 3.6 °F 1.9 °F 50% 30.18 in 10.0 mi East 15.0 mph 21.9 mph N/A   Clear
3:53 AM 16.0 °F 1.7 °F 1.9 °F 54% 30.16 in 10.0 mi East 13.8 mph - N/A   Clear
4:53 AM 15.1 °F -0.1 °F 1.9 °F 56% 30.14 in 10.0 mi East 15.0 mph - N/A   Clear
5:53 AM 15.1 °F 1.1 °F 3.0 °F 59% 30.16 in 10.0 mi East 12.7 mph - N/A   Partly Cloudy
6:23 AM 15.8 °F - 3.2 °F 58% 30.07 in 10.0 mi North - - N/A   Overcast
6:53 AM 16.0 °F 0.1 °F 3.0 °F 57% 30.17 in 10.0 mi East 17.3 mph - N/A   Overcast
7:53 AM 17.1 °F 2.0 °F 3.0 °F 54% 30.16 in 10.0 mi ESE 16.1 mph - N/A   Overcast
8:53 AM 18.0 °F 2.6 °F 3.9 °F 54% 30.17 in 10.0 mi ESE 17.3 mph - N/A   Overcast
9:35 AM 17.6 °F 1.7 °F 6.8 °F 63% 30.07 in - ESE 18.4 mph - N/A   Unknown
9:53 AM 18.0 °F 2.2 °F 8.1 °F 65% 30.17 in 5.0 mi ESE 18.4 mph - N/A   Unknown
10:06 AM 17.6 °F 2.2 °F 8.6 °F 68% 30.07 in 6.0 mi ESE 17.3 mph - 0.00 in   Haze
10:53 AM 18.0 °F 3.6 °F 12.0 °F 78% 30.17 in 6.0 mi ESE 15.0 mph - 0.00 in   Haze
11:15 AM 19.4 °F 4.5 °F 12.2 °F 74% 30.05 in 2.5 mi East 17.3 mph - 0.00 in Snow Light Snow
11:42 AM 19.4 °F 5.0 °F 14.0 °F 80% 30.04 in 4.0 mi ESE 16.1 mph - 0.00 in   Haze
11:53 AM 19.9 °F 5.2 °F 15.1 °F 81% 30.15 in 6.0 mi East 17.3 mph 21.9 mph 0.00 in   Haze
12:17 PM 19.4 °F 4.5 °F 15.8 °F 86% 30.03 in 8.0 mi East 17.3 mph - N/A   Overcast
12:49 PM 21.2 °F 6.8 °F 15.8 °F 80% 30.02 in 2.0 mi East 17.3 mph - 0.00 in Snow Light Snow
12:53 PM 21.0 °F 7.6 °F 16.0 °F 81% 30.12 in 2.0 mi ESE 15.0 mph - 0.00 in Snow Light Snow
1:00 PM 21.2 °F 8.3 °F 17.6 °F 86% 30.01 in 1.5 mi East 13.8 mph - 0.00 in Snow Light Snow
1:14 PM 21.2 °F 7.8 °F 17.6 °F 86% 30.00 in 2.0 mi ESE 15.0 mph - 0.00 in Snow Light Snow
1:21 PM 21.2 °F 6.8 °F 17.6 °F 86% 30.00 in 1.8 mi ESE 17.3 mph - 0.00 in Snow Light Snow
1:30 PM 21.2 °F 7.8 °F 17.6 °F 86% 30.00 in 3.0 mi East 15.0 mph - 0.00 in Snow Light Snow
1:44 PM 21.2 °F 6.8 °F 17.6 °F 86% 29.98 in 1.8 mi ESE 17.3 mph - 0.00 in Snow Light Snow
1:53 PM 21.9 °F 6.9 °F 18.0 °F 85% 30.08 in 1.2 mi East 19.6 mph - 0.00 in Snow Light Snow
2:28 PM 21.2 °F 6.4 °F 17.6 °F 86% 29.96 in 0.5 mi ESE 18.4 mph 23.0 mph 0.00 in Fog , Snow Snow
2:35 PM 21.2 °F 6.0 °F 17.6 °F 86% 29.96 in 0.5 mi ESE 19.6 mph 25.3 mph 0.00 in Fog , Snow Snow
2:50 PM 19.4 °F 4.5 °F 17.6 °F 93% 29.95 in 0.2 mi ESE 17.3 mph - 0.01 in Fog , Snow Heavy Snow
2:53 PM 19.9 °F 6.7 °F 18.0 °F 92% 30.06 in 0.2 mi East 13.8 mph - 0.01 in Fog , Snow Heavy Snow
3:51 PM 19.4 °F 5.0 °F 17.6 °F 93% 29.94 in 0.2 mi East 16.1 mph - 0.03 in Fog , Snow Heavy Snow
3:53 PM 19.9 °F 5.7 °F 17.1 °F 89% 30.06 in 0.2 mi East 16.1 mph - 0.03 in Fog , Snow Snow
4:07 PM 19.4 °F 5.0 °F 15.8 °F 86% 29.94 in 0.2 mi ESE 16.1 mph - 0.01 in Fog , Snow Snow
4:53 PM 19.0 °F 5.0 °F 16.0 °F 88% 30.05 in 0.2 mi East 15.0 mph - 0.02 in Fog , Snow Light Snow
5:06 PM 19.4 °F 6.0 °F 15.8 °F 86% 29.92 in 0.2 mi East 13.8 mph - 0.02 in Fog Light Freezing Fog
5:36 PM 19.4 °F 6.0 °F 15.8 °F 86% 29.92 in 0.5 mi East 13.8 mph - 0.03 in Fog , Snow Light Snow
5:53 PM 19.0 °F 4.5 °F 16.0 °F 88% 30.03 in 0.2 mi East 16.1 mph - 0.03 in Fog , Snow Snow
6:33 PM 19.4 °F 5.5 °F 17.6 °F 93% 29.92 in 1.0 mi East 15.0 mph - 0.01 in Snow Light Snow
6:53 PM 19.4 °F 6.6 °F 17.6 °F 93% 29.92 in 2.5 mi East 12.7 mph - N/A   Overcast
7:10 PM 19.4 °F 6.0 °F 17.6 °F 93% 29.93 in 1.5 mi East 13.8 mph - 0.00 in Snow Light Snow
7:26 PM 19.4 °F 5.0 °F 17.6 °F 93% 29.93 in 0.8 mi East 16.1 mph - 0.00 in Snow Light Snow
7:53 PM 19.9 °F 5.2 °F 17.1 °F 89% 30.05 in 0.5 mi ESE 17.3 mph - 0.01 in Fog , Snow Snow
8:22 PM 19.4 °F 5.5 °F 17.6 °F 93% 29.94 in 0.5 mi East 15.0 mph - 0.01 in Fog , Snow Snow
8:53 PM 19.9 °F 6.2 °F 18.0 °F 92% 30.04 in 0.5 mi East 15.0 mph - 0.02 in Fog , Snow Snow
9:01 PM 19.4 °F 5.0 °F 17.6 °F 93% 29.93 in 0.5 mi East 16.1 mph - 0.00 in Fog , Snow Snow
9:49 PM 19.4 °F 3.6 °F 17.6 °F 93% 29.94 in 0.2 mi East 19.6 mph - 0.03 in Fog , Snow Heavy Snow
9:53 PM 19.9 °F 4.3 °F 18.0 °F 92% 30.05 in 0.2 mi East 19.6 mph 26.5 mph 0.03 in Fog , Snow Heavy Snow
10:08 PM 19.4 °F 3.6 °F 17.6 °F 93% 29.94 in 0.5 mi East 19.6 mph 26.5 mph 0.01 in Fog , Snow Light Snow
10:29 PM 19.4 °F 3.6 °F 17.6 °F 93% 29.94 in 1.0 mi East 19.6 mph - 0.01 in Snow Light Snow
10:43 PM 19.4 °F 3.6 °F 17.6 °F 93% 29.94 in 1.5 mi East 19.6 mph - 0.01 in Snow Light Snow
10:53 PM 19.9 °F 5.2 °F 17.1 °F 89% 30.05 in 2.0 mi East 17.3 mph - 0.01 in   Overcast
11:27 PM 19.4 °F 4.5 °F 17.6 °F 93% 29.94 in 1.5 mi East 17.3 mph - 0.00 in Snow Light Snow
11:36 PM 19.4 °F 4.1 °F 17.6 °F 93% 29.93 in 1.8 mi East 18.4 mph - 0.00 in Snow Light Snow
11:48 PM 19.4 °F 4.5 °F 17.6 °F 93% 29.93 in 0.8 mi East 17.3 mph - 0.00 in Snow Light Snow
11:53 PM 19.9 °F 6.2 °F 17.1 °F 89% 30.04 in 0.8 mi East 15.0 mph - 0.00 in Snow Light Snow